This is the latest recevied weather packets stored in our database for station/object KB3HLL. If no packets are shown the sender has not sent any weather packets the latest 10 day(s).
| Time | Temp. | Humidity | Pressure | Rain* | Wind** | Luminosity | Snow |
|---|---|---|---|---|---|---|---|
| 1777814777 | 3.33° C | 69% | 1014.7 hPa | 0 mm | - | 567 W/m² | - |
| 1777814477 | 3.33° C | 69% | 1014.7 hPa | 0 mm | - | 551 W/m² | - |
| 1777814177 | 3.33° C | 71% | 1014.8 hPa | 0 mm | - | 535 W/m² | - |
| 1777813878 | 3.33° C | 71% | 1014.8 hPa | 0 mm | - | 517 W/m² | - |
| 1777813578 | 2.78° C | 73% | 1014.8 hPa | 0 mm | - | 500 W/m² | - |
| 1777813278 | 2.78° C | 77% | 1014.9 hPa | 0 mm | - | 482 W/m² | - |
| 1777812977 | 2.78° C | 78% | 1014.9 hPa | 0 mm | - | 464 W/m² | - |
| 1777812677 | 2.78° C | 81% | 1015.1 hPa | 0 mm | - | 447 W/m² | - |
| 1777812377 | 2.22° C | 81% | 1014.9 hPa | 0 mm | - | 430 W/m² | - |
| 1777812077 | 2.22° C | 82% | 1014.9 hPa | 0 mm | - | 411 W/m² | - |
| 1777811779 | 2.22° C | 83% | 1014.8 hPa | 0 mm | - | 394 W/m² | - |
| 1777811479 | 2.22° C | 83% | 1014.9 hPa | 0 mm | - | 376 W/m² | - |
| 1777811177 | 1.67° C | 84% | 1014.9 hPa | 0 mm | - | 358 W/m² | - |
| 1777810878 | 1.67° C | 85% | 1014.8 hPa | 0 mm | - | 341 W/m² | - |
| 1777810578 | 1.67° C | 85% | 1014.8 hPa | 0 mm | - | 323 W/m² | - |
| 1777810278 | 1.67° C | 85% | 1014.8 hPa | 0 mm | - | 306 W/m² | - |
| 1777809978 | 1.67° C | 86% | 1014.9 hPa | 0 mm | - | 288 W/m² | - |
| 1777809678 | 1.67° C | 86% | 1014.8 hPa | 0 mm | - | 271 W/m² | - |
| 1777809378 | 1.67° C | 87% | 1014.8 hPa | 0 mm | - | 254 W/m² | - |
| 1777809077 | 1.67° C | 87% | 1014.7 hPa | 0 mm | - | 235 W/m² | - |
| 1777808777 | 1.11° C | 87% | 1014.8 hPa | 0 mm | - | 219 W/m² | - |
| 1777808477 | 1.11° C | 87% | 1014.7 hPa | 0 mm | - | 202 W/m² | - |
| 1777808178 | 1.11° C | 88% | 1014.7 hPa | 0 mm | - | 186 W/m² | - |
| 1777807878 | 1.11° C | 88% | 1014.7 hPa | 0 mm | - | 170 W/m² | - |
| 1777807577 | 1.11° C | 89% | 1014.6 hPa | 0 mm | - | 155 W/m² | - |
* Rain latest hour (hover to see other rain measurements)
** Current wind speed in m/s (hover to see current wind gust speed)